Погода в Карабуле

Россия / Красноярский край     58°01′58″N   97°23′22″E
темп.,
°C
ветер,
м/с
пор.,
м/с
влажн.,
%
обл.,
%
осадки,
мм/ч
давл.,
гПа
погр.,
м
23 мая, пн
пн2301:00+7св11895 0.0 101210
04:00+6св11944 0.0 101410
07:00+11св12700 0.0 1016350
10:00+17юв11470 0.0 1016885
13:00+21ююз01390 0.0 10171591
16:00+22ю11370 0.0 10171812
19:00+20ююв12472 0.0 101854
22:00+14ю2263100 0.0 102011
24 мая, вт
вт2401:00+12ююз2268100 0.0 102112
04:00+10ююз1272100 0.0 102214
07:00+15юз1361100 0.0 1022256
10:00+20з22455 0.0 10221132
13:00+21з2342100 0.0 10212314
16:00+21ссв124489 0.0 10201132
19:00+20ю12525 0.0 1020106
22:00+14ююз11737 0.0 102015
25 мая, ср
ср2501:00+12з11776 0.0 102010
04:00+10зюз00755 0.0 102010
07:00+16з00505 0.0 1019165
10:00+22сз113199 0.0 10161014
13:00+25зсз122680 0.0 10141958
16:00+24сз242762 0.0 10112528
19:00+22сз373922 0.0 1010396
22:00+13сз51088100 1.1 1014706
26 мая, чт
чт2601:00+10ссз38940 1.6 1014310
04:00+8сз23973 0.0 101464
07:00+12с48760 0.0 1015646
10:00+16с464646 0.0 10151905
13:00+16с4543100 0.0 10161883
16:00+18ссз443597 0.0 10152383
19:00+16с23465 0.0 1015858
22:00+10ссв11705 0.0 101611
27 мая, пт
пт2701:00+8всв2691100 0.3 1016127
04:00+8св3994100 0.6 1016383
07:00+8всв4986100 0.6 1017809
10:00+11всв5765100 0.2 10171437
13:00+12св4640100 0.3 10171995
16:00+14св563199 0.0 10172528
19:00+12всв564121 0.0 10191845
22:00+6всв26632 0.0 1020119